• In Schweiz
  • Länderverzeichnis
  • Für 7 Tage
  • Wassertemperatur
  • Satellitenkarten
  • Wetterkarte
  • Widgets
  • user-avatar
    Anmelden

    Stündliche Wetter Newcastle

    Heute, 20 Juni, Mittwoch

    Zeit Temperatur Niederschläge Wind Luftdruck Luftfeuchtigkeit
    00:00 +10°C° 0,5 mm 6 m/S 767 mmHg 94%
    01:00 +10°C° 0,5 mm 6 m/S 767 mmHg 94%
    02:00 +10°C° 0,6 mm 6 m/S 767 mmHg 94%
    03:00 +10°C° 0,6 mm 6 m/S 767 mmHg 94%
    04:00 +11°C° 0 mm 6 m/S 767 mmHg 94%
    05:00 +10°C° 0,2 mm 6 m/S 768 mmHg 94%
    06:00 +10°C° 0,2 mm 6 m/S 768 mmHg 94%
    07:00 +10°C° 0,2 mm 5 m/S 768 mmHg 94%
    08:00 +12°C° 0 mm 5 m/S 768 mmHg 87%
    09:00 +14°C° 0 mm 5 m/S 768 mmHg 80%
    10:00 +15°C° 0 mm 5 m/S 768 mmHg 73%
    11:00 +16°C° 0 mm 5 m/S 768 mmHg 68%
    12:00 +17°C° 0 mm 5 m/S 768 mmHg 63%
    13:00 +19°C° 0 mm 5 m/S 767 mmHg 57%
    14:00 +17°C° 0,1 mm 5 m/S 768 mmHg 62%
    15:00 +17°C° 0,1 mm 4 m/S 768 mmHg 67%
    16:00 +15°C° 0,1 mm 4 m/S 768 mmHg 72%
    17:00 +14°C° 0,1 mm 4 m/S 768 mmHg 78%
    18:00 +13°C° 0,1 mm 4 m/S 768 mmHg 84%
    19:00 +12°C° 0,1 mm 4 m/S 769 mmHg 90%
    20:00 +12°C° 0,2 mm 4 m/S 769 mmHg 91%
    21:00 +11°C° 0,2 mm 3 m/S 769 mmHg 93%
    22:00 +11°C° 0,2 mm 3 m/S 769 mmHg 94%
    23:00 +11°C° 0,2 mm 3 m/S 769 mmHg 94%

    Morgen, 21 Juni, Donnerstag

    Zeit Temperatur Niederschläge Wind Luftdruck Luftfeuchtigkeit
    00:00 +10°C° 0,2 mm 3 m/S 769 mmHg 95%
    01:00 +10°C° 0,2 mm 3 m/S 769 mmHg 95%
    02:00 +10°C° 0,3 mm 3 m/S 769 mmHg 95%
    03:00 +10°C° 0,3 mm 3 m/S 769 mmHg 96%
    04:00 +10°C° 0,3 mm 3 m/S 769 mmHg 96%
    05:00 +9°C° 0,2 mm 2 m/S 769 mmHg 96%
    06:00 +9°C° 0,2 mm 2 m/S 769 mmHg 96%
    07:00 +9°C° 0,2 mm 2 m/S 769 mmHg 96%
    08:00 +10°C° 0,3 mm 2 m/S 770 mmHg 93%
    09:00 +12°C° 0,3 mm 2 m/S 770 mmHg 90%
    10:00 +14°C° 0,3 mm 2 m/S 770 mmHg 87%
    11:00 +14°C° 0,4 mm 2 m/S 770 mmHg 86%
    12:00 +15°C° 0,4 mm 2 m/S 769 mmHg 84%
    13:00 +15°C° 0,4 mm 2 m/S 769 mmHg 83%
    14:00 +15°C° 0,3 mm 2 m/S 769 mmHg 83%
    15:00 +16°C° 0,3 mm 2 m/S 769 mmHg 83%
    16:00 +16°C° 0,3 mm 2 m/S 768 mmHg 83%
    17:00 +15°C° 0,1 mm 2 m/S 769 mmHg 87%
    18:00 +13°C° 0,1 mm 2 m/S 769 mmHg 91%
    19:00 +12°C° 0,1 mm 1 m/S 770 mmHg 95%
    20:00 +12°C° 0 mm 1 m/S 770 mmHg 95%
    21:00 +12°C° 0 mm 1 m/S 770 mmHg 96%
    22:00 +11°C° 0 mm 1 m/S 771 mmHg 96%
    23:00 +11°C° 0 mm 1 m/S 770 mmHg 96%

    übermorgen, 22 Juni, Freitag

    Zeit Temperatur Niederschläge Wind Luftdruck Luftfeuchtigkeit
    00:00 +11°C° 0 mm 1 m/S 770 mmHg 97%
    01:00 +10°C° 0 mm 1 m/S 770 mmHg 97%
    02:00 +10°C° 0,1 mm 1 m/S 770 mmHg 97%
    03:00 +10°C° 0,1 mm 1 m/S 770 mmHg 97%
    04:00 +10°C° 0,1 mm 1 m/S 770 mmHg 97%
    05:00 +9°C° 0 mm 2 m/S 770 mmHg 97%
    06:00 +9°C° 0 mm 2 m/S 770 mmHg 97%
    07:00 +8°C° 0 mm 2 m/S 770 mmHg 97%
    08:00 +12°C° 0 mm 2 m/S 770 mmHg 90%
    09:00 +14°C° 0 mm 2 m/S 770 mmHg 83%
    10:00 +16°C° 0 mm 2 m/S 771 mmHg 76%
    11:00 +18°C° 0 mm 1 m/S 770 mmHg 69%
    12:00 +20°C° 0 mm 1 m/S 769 mmHg 62%
    13:00 +21°C° 0 mm 1 m/S 769 mmHg 55%
    14:00 +20°C° 0 mm 1 m/S 768 mmHg 59%
    15:00 +19°C° 0 mm 1 m/S 768 mmHg 62%
    16:00 +18°C° 0 mm 1 m/S 768 mmHg 66%
    17:00 +16°C° 0 mm 1 m/S 768 mmHg 75%
    18:00 +14°C° 0 mm 2 m/S 769 mmHg 83%
    19:00 +12°C° 0 mm 2 m/S 769 mmHg 91%
    20:00 +12°C° 0 mm 2 m/S 769 mmHg 93%
    21:00 +10°C° 0 mm 2 m/S 769 mmHg 94%
    22:00 +10°C° 0 mm 2 m/S 770 mmHg 96%
    23:00 +10°C° 0 mm 2 m/S 769 mmHg 96%

    23 Juni, Samstag

    Zeit Temperatur Niederschläge Wind Luftdruck Luftfeuchtigkeit
    00:00 +9°C° 0 mm 3 m/S 769 mmHg 96%
    01:00 +9°C° 0 mm 3 m/S 768 mmHg 96%
    02:00 +9°C° 0 mm 3 m/S 768 mmHg 96%
    03:00 +8°C° 0 mm 3 m/S 768 mmHg 96%
    04:00 +8°C° 0 mm 2 m/S 768 mmHg 95%
    05:00 +8°C° 0 mm 2 m/S 768 mmHg 95%
    06:00 +8°C° 0 mm 2 m/S 768 mmHg 94%
    07:00 +8°C° 0 mm 3 m/S 768 mmHg 93%
    08:00 +10°C° 0 mm 3 m/S 768 mmHg 83%
    09:00 +12°C° 0 mm 3 m/S 768 mmHg 73%
    10:00 +14°C° 0 mm 3 m/S 768 mmHg 63%
    11:00 +17°C° 0 mm 2 m/S 768 mmHg 57%
    12:00 +18°C° 0 mm 2 m/S 767 mmHg 51%
    13:00 +20°C° 0 mm 2 m/S 766 mmHg 44%
    14:00 +19°C° 0 mm 2 m/S 766 mmHg 48%
    15:00 +18°C° 0 mm 2 m/S 766 mmHg 52%
    16:00 +17°C° 0 mm 2 m/S 766 mmHg 56%
    17:00 +15°C° 0 mm 2 m/S 767 mmHg 62%
    18:00 +13°C° 0 mm 2 m/S 767 mmHg 68%
    19:00 +10°C° 0 mm 2 m/S 768 mmHg 74%
    20:00 +10°C° 0 mm 2 m/S 768 mmHg 74%
    21:00 +9°C° 0 mm 3 m/S 768 mmHg 74%
    22:00 +9°C° 0 mm 3 m/S 769 mmHg 75%
    23:00 +8°C° 0 mm 3 m/S 769 mmHg 74%

    24 Juni, Sonntag

    Zeit Temperatur Niederschläge Wind Luftdruck Luftfeuchtigkeit
    00:00 +8°C° 0 mm 3 m/S 769 mmHg 74%
    01:00 +7°C° 0 mm 3 m/S 769 mmHg 73%
    02:00 +6°C° 0 mm 4 m/S 769 mmHg 73%
    03:00 +6°C° 0 mm 4 m/S 769 mmHg 74%
    04:00 +5°C° 0 mm 4 m/S 769 mmHg 74%
    05:00 +5°C° 0,2 mm 4 m/S 769 mmHg 76%
    06:00 +5°C° 0,2 mm 4 m/S 770 mmHg 78%
    07:00 +5°C° 0,2 mm 4 m/S 770 mmHg 80%
    08:00 +7°C° 0,3 mm 5 m/S 771 mmHg 75%
    09:00 +10°C° 0,3 mm 5 m/S 771 mmHg 71%
    10:00 +13°C° 0,3 mm 5 m/S 771 mmHg 66%
    11:00 +14°C° 0,1 mm 5 m/S 771 mmHg 65%
    12:00 +14°C° 0,1 mm 5 m/S 770 mmHg 63%
    13:00 +15°C° 0,1 mm 5 m/S 770 mmHg 61%
    14:00 +15°C° 0 mm 5 m/S 769 mmHg 62%
    15:00 +15°C° 0 mm 5 m/S 769 mmHg 63%
    16:00 +14°C° 0 mm 4 m/S 769 mmHg 65%
    17:00 +13°C° 0 mm 4 m/S 770 mmHg 72%
    18:00 +11°C° 0 mm 4 m/S 770 mmHg 79%
    19:00 +9°C° 0 mm 3 m/S 771 mmHg 86%
    20:00 +9°C° 0,1 mm 3 m/S 771 mmHg 88%
    21:00 +9°C° 0,1 mm 3 m/S 771 mmHg 89%
    22:00 +8°C° 0,1 mm 3 m/S 772 mmHg 91%
    23:00 +8°C° 0,1 mm 3 m/S 771 mmHg 92%

    25 Juni, Montag

    Zeit Temperatur Niederschläge Wind Luftdruck Luftfeuchtigkeit
    00:00 +7°C° 0,1 mm 3 m/S 771 mmHg 93%
    01:00 +7°C° 0,1 mm 3 m/S 771 mmHg 94%
    02:00 +7°C° 0 mm 3 m/S 771 mmHg 94%
    03:00 +7°C° 0 mm 3 m/S 771 mmHg 94%
    04:00 +5°C° 0 mm 3 m/S 771 mmHg 95%
    05:00 +5°C° 0 mm 3 m/S 772 mmHg 94%
    06:00 +5°C° 0 mm 3 m/S 772 mmHg 94%
    07:00 +5°C° 0 mm 3 m/S 773 mmHg 94%
    08:00 +8°C° 0 mm 3 m/S 773 mmHg 84%
    09:00 +11°C° 0 mm 3 m/S 773 mmHg 73%
    10:00 +13°C° 0 mm 3 m/S 773 mmHg 63%
    11:00 +15°C° 0 mm 2 m/S 773 mmHg 59%
    12:00 +17°C° 0 mm 2 m/S 772 mmHg 55%
    13:00 +18°C° 0 mm 2 m/S 771 mmHg 52%
    14:00 +17°C° 0 mm 2 m/S 771 mmHg 56%
    15:00 +16°C° 0 mm 2 m/S 771 mmHg 60%
    16:00 +16°C° 0 mm 2 m/S 771 mmHg 65%
    17:00 +14°C° 0 mm 2 m/S 772 mmHg 73%
    18:00 +12°C° 0 mm 2 m/S 772 mmHg 82%
    19:00 +10°C° 0 mm 1 m/S 773 mmHg 90%
    20:00 +10°C° 0 mm 1 m/S 773 mmHg 91%
    21:00 +10°C° 0 mm 1 m/S 773 mmHg 93%
    22:00 +9°C° 0 mm 1 m/S 773 mmHg 94%
    23:00 +9°C° 0 mm 1 m/S 773 mmHg 94%
    Mehr zeigen